Regional Weather Roundup
Issued by NWS Charleston, SC

Current Version | Previous Version | Graphics & Text | Print | Product List | Glossary On
Versions: 1 2 3 4 5 6 7 8 9 10 11 12 13 14 15 16 17 18 19 20 21 22 23 24 25 26 27 28 29 30 31 32 33 34 35 36 37 38 39 40 41 42 43 44 45 46 47 48 49 50
000
ASUS42 KCHS 282326
RWRCHS

REGIONAL WEATHER ROUNDUP
NATIONAL WEATHER SERVICE CHARLESTON SC
600 PM EST WED JAN 28 2015

NOTE: "FAIR" INDICATES FEW OR NO CLOUDS BELOW 12,000 FEET WITH NO
SIGNIFICANT WEATHER AND/OR OBSTRUCTIONS TO VISIBILITY.

NOT ALL STATIONS ARE QUALITY CONTROLLED BY THE NATIONAL
WEATHER SERVICE. USE DATA WITH CAUTION...ESPECIALLY
DEWPOINT OBSERVATIONS.

SCZ027-030-031-034>040-042>050-290000-
...SOUTHEAST SOUTH CAROLINA...

CITY           SKY/WX    TMP DP  RH WIND       PRES   REMARKS
N CHARLESTON   CLEAR     41  22  46 N5        30.29R
WATERFRONT PRK   N/A     46 N/A N/A N7          N/A
MOUNT PLEASANT LGT RAIN N/A N/A N/A CALM      30.29R
PINOPOLIS      NOT AVBL
MONCKS CORNER  FAIR      41  28  60 CALM      30.29R
SUMMERVILLE    FAIR      45  25  45 CALM      30.29R
BEAUFORT MCAS  PTCLDY    43  25  49 NE6       30.29R
BEAUFORT ARPT  FAIR      45  30  57 N5        30.29R
HILTON HEAD IS CLEAR    N/A N/A N/A N3        30.28R
WALTERBORO     CLEAR     45  18  33 CALM      30.29R
ALLENDALE      FAIR      45  25  45 CALM      30.27S

...SOUTHERN MIDLANDS AND PEE DEE...

CITY           SKY/WX    TMP DP  RH WIND       PRES   REMARKS
GEORGETOWN     NOT AVBL
KINGSTREE      NOT AVBL
ORANGEBURG     CLEAR     46  20  35 N3        30.28R
BARNWELL       FAIR      45  27  49 CALM      30.28R
AIKEN          FAIR      43  23  45 CALM      30.30R
MANNING        FAIR      41  30  65 CALM      30.29R
COLUMBIA       PTCLDY    46  21  37 CALM      30.27R
SUMTER         CLEAR     45  20  36 NW2       30.26R
FLORENCE       CLEAR     44  21  40 N3        30.28R
MYRTLE BEACH   CLEAR     45  16  31 NW7       30.29R
N MYRTLE BEACH CLEAR     42  17  36 CALM      30.27R

$$

GAZ063-065-086>088-099>101-113>116-118-119-134>141-150-290000-
...SOUTHEAST GEORGIA...

CITY           SKY/WX    TMP DP  RH WIND       PRES   REMARKS
SAVANNAH ARPT  PTCLDY    47  19  33 N5        30.28R
HUNTER AAF     CLEAR     49  20  31 N5        30.26R
FORT STEWART   CLEAR     49  25  38 CALM      30.27R
STATESBORO     CLEAR     39  31  72 CALM      30.28R
SYLVANIA       CLEAR     43  31  61 CALM      30.29R
CLAXTON        FAIR      43  32  65 CALM      30.28R

...CSRA...CENTRAL AND FAR SOUTHEAST GEORGIA...

CITY           SKY/WX    TMP DP  RH WIND       PRES   REMARKS
THOMSON        CLEAR     45  31  57 CALM      30.31R
AUGUSTA-BUSH   CLEAR     47  18  31 CALM      30.27R
AUGUSTA-DANIEL CLEAR     50  16  25 CALM      30.26
SWAINSBORO     FAIR      45  25  45 CALM      30.27S
VIDALIA        CLEAR     50  28  43 NE3       30.27R
EASTMAN        FAIR      47  33  58 CALM      30.30R
HAZLEHURST     FAIR      49  31  50 CALM      30.26R
ALMA           CLEAR     51  27  39 CALM      30.26R
WAYCROSS       CLEAR     50  33  51 CALM      30.27R
JESUP          FAIR      46  36  66 CALM      30.28R
BAXLEY         FAIR      50  32  50 CALM      30.26R
BRUNSWICK      CLEAR     46  32  57 CALM      30.28S
SAINT SIMONS   CLEAR     47  31  53 E5        30.28R

$$

SCZ027-028-034-036>038-045-046-048>050-GAZ119-141-290000-
...LAKE AND SUPPLEMENTAL COASTAL OBSERVATIONS...

STATION/POSITION TIME  TEMP    WIND        PRES    WAVE   SWELL
                       AIR SEA DIR/SP/G            HT/PER HT/PER/DIR
                 (UTC) (F)     (DEG/KT/KT) (MB)    (FT/S) (FT/S/D)
UPR LAKE MARION  NOT AVBL
WINYAH BAY       2200   47     330/  4     1023.0R
LAKE MURRAY      2200   51     190/  3/  6 1024.0R
ACE BASIN NERRS  NOT AVBL
FORT PULASKI     2300   48 52   30/  6/  8 1025.8R
SAPELO ISLAND    2300   47      40/  4     1025.0R

$$

ANZ835-935-AMZ111-154-330-350-352-354-370-450-454-472-290000-
...C-MAN AND BUOY OBSERVATIONS...

STATION/POSITION TIME  TEMP    WIND        PRES    WAVE   SWELL
                       AIR SEA DIR/SP/G            HT/PER HT/PER/DIR
                 (UTC) (F)     (DEG/KT/KT) (MB)    (FT/S) (FT/S/D)
BUOY 41004       2250   47 65  350/ 12/ 16 1024.7R   4/ 6   3/13
BUOY 41008       2250   47 54   40/ 10/ 12 1025.1R   3/ 5   3/ 60/ 5
FOLLY BEACH CMAN 2300   43     340/  4/  6 1026.1R
CAPERS NEARSHORE 2200   48     360/  8/ 10   N/A
FRIPP NEARSHORE  2200   48     350/  8/  8 1024.3R


STATION/POSITION TIME  TEMP    WIND        PRES    WAVE   SWELL
                       AIR SEA DIR/SP/G            HT/PER HT/PER/DIR
                 (UTC) (F)     (DEG/KT/KT) (MB)    (FT/S) (FT/S/D)
5E ST. MARYS GA  NOT AVBL
FRYING PAN BUOY  2250   46 63  360/ 14/ 17 1024.9R   4/ 6   2/ 90/12
BUOY 41025       2250   40     340/ 17/ 21 1022.6R   5/11   3/ 40/11
CAPE LOOKOUT NC  2300   41     340/ 10/ 11 1024.3R
BUOY 41002       2250   56 72  340/ 23/ 29 1019.2R  10/ 7   5/ 10/12
BUOY 41010       2220   61 76  340/ 17/ 23 1021.2R
ST AUGUSTINE FL  2300   49      20/ 13/ 15 1025.5R


$$


USA.gov is the U.S. government's official web portal to all federal, state and local government web resources and services.